Regional Weather Roundup
Issued by NWS Albany, NY

Home | Current Version | Previous Version | Text Only | Print | Product List | Glossary On
Versions: 1 2 3 4 5 6 7 8 9 10 11 12 13 14 15 16 17 18 19 20 21 22 23 24 25 26 27 28 29 30 31 32 33 34 35 36 37 38 39 40 41 42 43 44 45 46 47 48 49 50
339
ASUS41 KALY 060610
RWRALY

NEW YORK STATE HOURLY WEATHER ROUNDUP
NATIONAL WEATHER SERVICE ALBANY NY
100 AM EST TUE DEC 06 2016

NOTE: "FAIR" INDICATES FEW OR NO CLOUDS BELOW 12,000 FEET WITH NO
SIGNIFICANT WEATHER AND/OR NO OBSTRUCTIONS TO VISIBILITY.

NYZ032-033-038>043-046>054-057>066-NYZ062>081-082-084-060700-
EAST


CITY           SKY/WX    TMP DP  RH WIND       PRES   REMARKS
ALBANY         PTCLDY    37  30  75 W9        30.07S WCI  30
GLENS FALLS    CLOUDY    31  28  89 CALM      30.06R
POUGHKEEPSIE   CLEAR     29  26  89 SE5       30.08S WCI  24
NEWBURGH       PTCLDY    32  28  86 W9        30.09F WCI  24
MONTGOMERY     CLEAR     27  25  92 S6        30.09S WCI  20
WHITE PLAINS   CLEAR     39  27  62 NW8       30.08S WCI  33
ISLIP          CLEAR     31  27  85 CALM      30.09S
NEW YORK CITY  MOCLDY    45  29  53 NW13      30.10S
CENTRAL PARK   CLEAR     41  29  62 VRB3      30.12S
$$

NYZ005>009-017-018-044>046-055-056-060700-
CENTRAL


CITY           SKY/WX    TMP DP  RH WIND       PRES   REMARKS
FULTON         CLOUDY    38  31  76 W7        30.09R WCI  33
SYRACUSE       LGT RAIN  37  31  78 W8        30.09R WCI  31
ROME           CLOUDY    34  34 100 NW5       30.10R WCI  30
ELMIRA         CLEAR     26  22  84 CALM      30.10R
BINGHAMTON     CLEAR     30  25  81 NW5       30.06R WCI  25
MONTICELLO     CLEAR     28  25  86 W3        30.07R
$$

NYZ026>034-041>043-087-060700-
NORTH


CITY           SKY/WX    TMP DP  RH WIND       PRES   REMARKS
WATERTOWN      CLEAR     34  31  88 W5        30.08R WCI  30
FORT DRUM      NOT AVBL
OGDENSBURG     FAIR      32  31  98 W6        30.06R WCI  26
MASSENA        CLOUDY    30  28  93 CALM      30.07S
SARANAC LAKE   CLOUDY    32  28  85 VRB3      29.98S
PLATTSBURGH    CLOUDY    31  27  85 N3        30.05S
$$

NYZ001>004-010>016-019>021-085-060700-
WEST


CITY           SKY/WX    TMP DP  RH WIND       PRES   REMARKS
NIAGARA FALLS  CLEAR     33  27  78 CALM      30.09S
BUFFALO        PTCLDY    36  26  67 W6        30.09F WCI  31
DUNKIRK        CLOUDY    39  32  76 CALM      30.10S
JAMESTOWN      CLOUDY    34  28  80 CALM      30.06S
WELLSVILLE     CLOUDY    35  28  75 CALM      30.07R
ROCHESTER      CLEAR     28  26  92 SW3       30.11R
PENN YAN       CLEAR     33  26  75 CALM      30.09S
$$

             KEY
       WCI = WIND CHILL INDEX
       VSB = VISIBILITY
       HX  = HEAT INDEX
$$




USA.gov is the U.S. government's official web portal to all federal, state and local government web resources and services.